Volver al catálogo

ARIANE 1 DEB

LostHEO
NORAD 26532·DEBRIS·🇫🇷 France

Lanzado Dec 24, 1979 desde Guiana Space Centre

Loading…

Próximos Pases (próximas 24 horas)

TLE

ObsoletoSource: Space-Track

Época: Jan 21, 2025, 06:36 UTC

1 26532U 79104N   25021.27536750 -.00001198  00000-0 -33428-1 0  9996
2 26532  15.8870 319.8976 5829719 241.8214 289.5286  3.77551389351305

Sigue ARIANE 1 DEB en tiempo real con AllMySat

Download on the App Store